Creston, British Columbia

4:47 PM MST on August 23, 2017 (GMT -0700)
Creston

Weather History for CWJR - October, 2012

Change the Weather History Date:

Thursday, October 18, 2012

  Actual Average (CYXC) Record (CYXC)
Temperature  
Mean Temperature 45 °F -  
Max Temperature 55 °F 49 °F 68 °F (2003)
Min Temperature 35 °F 29 °F 23 °F (2010)
Degree Days  
Heating Degree Days 20    
Moisture  
Dew Point 35 °F    
Average Humidity 68    
Maximum Humidity 94    
Minimum Humidity 41    
Precipitation  
Precipitation 0.01 in - - ()
Sea Level Pressure  
Sea Level Pressure 30.11 in    
Wind  
Wind Speed 3 mph ()    
Max Wind Speed 7 mph    
Max Gust Speed -    
Averages and records for this station are not official NWS values.
T = Trace of Precipitation, MM = Missing Value Source: Averaged Metar Reports

Daily Weather History Graph

Daily Weather History Graph

Search for Another Location

Airport or City:

Trip Planner

Search our weather history database for the weather conditions in past years. The results will help you decide how hot, cold, wet, or windy it might be!

Date:

Astronomy

Oct. 18, 2012 Rise Set
Actual Time 7:12 AM MST 5:48 PM MST
Civil Twilight 6:40 AM MST 6:21 PM MST
Nautical Twilight 6:03 AM MST 6:57 PM MST
Astronomical Twilight 5:26 AM MST 7:34 PM MST
Moon 11:17 AM MST (10/18) 8:08 PM MST (10/18)
Length of Visible Light 11h 41m
Length of Day
10h 36m
Waxing Crescent, 15% of the Moon is Illuminated
Oct 18
Waxing Crescent
Oct 21
First Quarter
Oct 29
Full
Nov 6
Last Quarter
Nov 13
New

Hourly Weather History & Observations

Time (MST) Temp. Windchill Dew Point Humidity Pressure Visibility Wind Dir Wind Speed Gust Speed Precip Events Conditions
12:00 AM 35.2 °F 30.3 °F 28.4 °F 76% 30.35 in - East 5.8 mph - N/A   Unknown
1:00 AM 36.9 °F 31.4 °F 28.9 °F 73% 30.35 in - East 6.9 mph - N/A   Unknown
2:00 AM 36.9 °F 34.3 °F 29.5 °F 75% 30.36 in - East 3.5 mph - N/A   Unknown
3:00 AM 39.4 °F 37.2 °F 30.2 °F 70% 30.35 in - East 3.5 mph - N/A   Unknown
4:00 AM 43.5 °F - 31.8 °F 63% 30.34 in - South 2.3 mph - N/A   Unknown
5:00 AM 45 °F - 35 °F 56% 30.32 in - WSW 3.5 mph - -  
5:00 AM 45.0 °F 43.5 °F 34.5 °F 67% 30.32 in - WSW 3.5 mph - N/A   Unknown
6:00 AM 48.4 °F - 33.8 °F 57% 30.30 in - SSW 1.2 mph - N/A   Unknown
7:00 AM 49.6 °F - 35.1 °F 57% 30.26 in - West 1.2 mph - N/A   Unknown
8:00 AM 53.6 °F - 36.0 °F 51% 30.22 in - West 2.3 mph - N/A   Unknown
9:00 AM 53.6 °F - 35.4 °F 50% 30.18 in - West 2.3 mph - N/A   Unknown
10:00 AM 52.3 °F - 35.2 °F 52% 30.17 in - West 3.5 mph - N/A   Unknown
11:00 AM 51 °F - 35 °F 41% 30.14 in - NW 3.5 mph - -  
11:00 AM 51.1 °F - 34.5 °F 53% 30.14 in - NW 3.5 mph - N/A   Unknown
12:00 PM 48.7 °F - 36.0 °F 61% 30.10 in - North 2.3 mph - N/A   Unknown
1:00 PM 47.8 °F - 35.6 °F 63% 30.07 in - NNE 2.3 mph - N/A   Unknown
2:00 PM 46.8 °F - 36.9 °F 68% 30.04 in - ENE 2.3 mph - N/A   Unknown
3:00 PM 47.3 °F - 37.2 °F 68% 30.01 in - NW 3.5 mph - N/A   Unknown
4:00 PM 45.3 °F - 37.8 °F 75% 29.98 in - Calm Calm - N/A   Unknown
5:00 PM 44 °F - 36 °F 66% 29.94 in - SSE 1.2 mph - -  
5:00 PM 43.9 °F - 36.3 °F 75% 29.94 in - SSE 1.2 mph - N/A   Unknown
6:00 PM 46.4 °F - 36.5 °F 68% 29.92 in - NNE 2.3 mph - N/A   Unknown
7:00 PM 44.6 °F - 36.5 °F 73% 29.91 in - WSW 1.2 mph - N/A   Unknown
8:00 PM 42.3 °F - 39.4 °F 90% 29.89 in - NNW 2.3 mph - N/A   Unknown
9:00 PM 41.7 °F 38.8 °F 39.7 °F 93% 29.90 in - ESE 4.6 mph - 0.01 in   Unknown
10:00 PM 41.7 °F - 40.1 °F 94% 29.89 in - ENE 1.2 mph - N/A   Unknown
11:00 PM 42 °F - 40 °F 89% 29.87 in - East 3.5 mph - -  
11:00 PM 42.4 °F 40.7 °F 39.9 °F 91% 29.87 in - East 3.5 mph - N/A   Unknown